Time,TemperatureF,DewpointF,PressureIn,WindDirection,WindDirectionDegrees,WindSpeedMPH,WindSpeedGustMPH,Humidity,HourlyPrecipIn,Conditions,Clouds,dailyrainin,SoftwareType,DateUTC
2013-01-13 00:23:00,58.0,-99.9,-100.00,WSW,244,4.0,-999.0,102,0.00,,,-99.99,,2013-01-13 05:23:00,
2013-01-13 00:33:00,58.0,-99.9,-100.00,WSW,244,4.0,-999.0,102,0.00,,,-99.99,,2013-01-13 05:33:00,
2013-01-13 00:42:00,58.0,-99.9,-100.00,WSW,244,4.0,-999.0,102,0.00,,,-99.99,,2013-01-13 05:42:00,
2013-01-13 01:12:00,57.0,-99.9,-100.00,SW,235,4.0,-999.0,104,-99.99,,,-99.99,,2013-01-13 06:12:00,
2013-01-13 01:22:00,57.0,-99.9,-100.00,SW,235,4.0,-999.0,104,0.00,,,-99.99,,2013-01-13 06:22:00,
2013-01-13 01:33:00,57.0,-99.9,-100.00,SW,235,4.0,-999.0,104,0.00,,,-99.99,,2013-01-13 06:33:00,
2013-01-13 01:43:00,57.0,-99.9,-100.00,SW,235,4.0,-999.0,104,0.00,,,-99.99,,2013-01-13 06:43:00,
2013-01-13 02:22:00,55.0,-99.9,-100.00,SW,227,1.0,-999.0,105,0.00,,,-99.99,,2013-01-13 07:22:00,
2013-01-13 02:33:00,55.0,-99.9,-100.00,SW,227,1.0,-999.0,105,0.00,,,-99.99,,2013-01-13 07:33:00,
2013-01-13 02:42:00,55.0,-99.9,-100.00,SW,227,1.0,-999.0,105,0.00,,,-99.99,,2013-01-13 07:42:00,
2013-01-13 03:22:00,55.0,-99.9,-100.00,SW,231,4.0,-999.0,108,0.00,,,-99.99,,2013-01-13 08:22:00,
2013-01-13 03:33:00,55.0,-99.9,-100.00,SW,231,4.0,-999.0,108,0.00,,,-99.99,,2013-01-13 08:33:00,
2013-01-13 03:42:00,55.0,-99.9,-100.00,SW,231,4.0,-999.0,108,0.00,,,-99.99,,2013-01-13 08:42:00,
2013-01-13 04:22:00,55.0,-99.9,-100.00,SW,225,3.0,-999.0,109,0.00,,,-99.99,,2013-01-13 09:22:00,
2013-01-13 04:33:00,55.0,-99.9,-100.00,SW,225,3.0,-999.0,109,0.00,,,-99.99,,2013-01-13 09:33:00,
2013-01-13 04:43:00,55.0,-99.9,-100.00,SW,225,3.0,-999.0,109,0.00,,,-99.99,,2013-01-13 09:43:00,
2013-01-13 05:22:00,54.0,-99.9,-100.00,West,261,2.0,-999.0,111,0.00,,,-99.99,,2013-01-13 10:22:00,
2013-01-13 05:33:00,54.0,-99.9,-100.00,West,261,2.0,-999.0,111,0.00,,,-99.99,,2013-01-13 10:33:00,
2013-01-13 05:42:00,54.0,-99.9,-100.00,West,261,2.0,-999.0,111,0.00,,,-99.99,,2013-01-13 10:42:00,
2013-01-13 06:22:00,52.0,-99.9,-100.00,North,-999,0.0,-999.0,111,0.00,,,-99.99,,2013-01-13 11:22:00,
2013-01-13 06:33:00,52.0,-99.9,-100.00,North,-999,0.0,-999.0,111,0.00,,,-99.99,,2013-01-13 11:33:00,
2013-01-13 06:43:00,52.0,-99.9,-100.00,North,-999,0.0,-999.0,111,0.00,,,-99.99,,2013-01-13 11:43:00,
2013-01-13 07:23:00,50.0,-99.9,-100.00,North,-999,0.0,-999.0,111,0.00,,,-99.99,,2013-01-13 12:23:00,
2013-01-13 07:33:00,50.0,-99.9,-100.00,North,-999,0.0,-999.0,111,0.00,,,-99.99,,2013-01-13 12:33:00,
2013-01-13 07:43:00,50.0,-99.9,-100.00,North,-999,0.0,-999.0,111,0.00,,,-99.99,,2013-01-13 12:43:00,
2013-01-13 08:22:00,50.0,-99.9,-100.00,SW,221,0.0,-999.0,111,0.00,,,-99.99,,2013-01-13 13:22:00,
2013-01-13 08:33:00,50.0,-99.9,-100.00,SW,221,0.0,-999.0,111,0.00,,,-99.99,,2013-01-13 13:33:00,
2013-01-13 08:43:00,50.0,-99.9,-100.00,SW,221,0.0,-999.0,111,0.00,,,-99.99,,2013-01-13 13:43:00,
2013-01-13 09:23:00,52.0,-99.9,-100.00,North,360,0.0,-999.0,112,0.00,,,-99.99,,2013-01-13 14:23:00,
2013-01-13 09:33:00,52.0,-99.9,-100.00,North,360,0.0,-999.0,112,0.00,,,-99.99,,2013-01-13 14:33:00,
2013-01-13 09:43:00,52.0,-99.9,-100.00,North,360,0.0,-999.0,112,0.00,,,-99.99,,2013-01-13 14:43:00,
2013-01-13 10:23:00,58.0,-99.9,-100.00,WSW,253,5.0,-999.0,108,0.00,,,-99.99,,2013-01-13 15:23:00,
2013-01-13 10:33:00,58.0,-99.9,-100.00,WSW,253,5.0,-999.0,108,0.00,,,-99.99,,2013-01-13 15:33:00,
2013-01-13 10:43:00,58.0,-99.9,-100.00,WSW,253,5.0,-999.0,108,0.00,,,-99.99,,2013-01-13 15:43:00,
2013-01-13 11:23:00,64.0,61.0,-100.00,SSW,194,4.0,-999.0,90,0.00,,,-99.99,,2013-01-13 16:23:00,
2013-01-13 11:33:00,64.0,61.0,-100.00,SSW,194,4.0,-999.0,90,0.00,,,-99.99,,2013-01-13 16:33:00,
2013-01-13 11:43:00,64.0,61.0,-100.00,SSW,194,4.0,-999.0,90,0.00,,,-99.99,,2013-01-13 16:43:00,
2013-01-13 12:22:00,65.0,60.0,-100.00,SE,146,4.0,-999.0,86,0.00,,,-99.99,,2013-01-13 17:22:00,
2013-01-13 12:33:00,65.0,60.0,-100.00,SE,146,4.0,-999.0,86,0.00,,,-99.99,,2013-01-13 17:33:00,
2013-01-13 12:43:00,65.0,60.0,-100.00,SE,146,4.0,-999.0,86,0.00,,,-99.99,,2013-01-13 17:43:00,
2013-01-13 13:23:00,72.0,62.0,-100.00,SW,221,7.0,-999.0,70,0.00,,,-99.99,,2013-01-13 18:23:00,
2013-01-13 13:33:00,72.0,62.0,-100.00,SW,221,7.0,-999.0,70,0.00,,,-99.99,,2013-01-13 18:33:00,
2013-01-13 13:43:00,72.0,62.0,-100.00,SW,221,7.0,-999.0,70,0.00,,,-99.99,,2013-01-13 18:43:00,
2013-01-13 14:23:00,72.0,61.0,-100.00,SSW,206,11.0,-999.0,68,0.00,,,-99.99,,2013-01-13 19:23:00,
2013-01-13 14:33:00,72.0,61.0,-100.00,SSW,206,11.0,-999.0,68,0.00,,,-99.99,,2013-01-13 19:33:00,
2013-01-13 14:43:00,72.0,61.0,-100.00,SSW,206,11.0,-999.0,68,0.00,,,-99.99,,2013-01-13 19:43:00,
2013-01-13 15:23:00,72.0,60.0,-100.00,SW,223,8.0,-999.0,66,0.00,,,-99.99,,2013-01-13 20:23:00,
2013-01-13 15:33:00,72.0,60.0,-100.00,SW,223,8.0,-999.0,66,0.00,,,-99.99,,2013-01-13 20:33:00,
2013-01-13 15:43:00,72.0,60.0,-100.00,SW,223,8.0,-999.0,66,0.00,,,-99.99,,2013-01-13 20:43:00,
2013-01-13 16:23:00,71.0,61.0,-100.00,SW,214,6.0,-999.0,70,0.00,,,-99.99,,2013-01-13 21:23:00,
2013-01-13 16:33:00,71.0,61.0,-100.00,SW,214,6.0,-999.0,70,0.00,,,-99.99,,2013-01-13 21:33:00,
2013-01-13 16:43:00,71.0,61.0,-100.00,SW,214,6.0,-999.0,70,0.00,,,-99.99,,2013-01-13 21:43:00,
2013-01-13 17:23:00,70.0,61.0,-100.00,SW,234,5.0,-999.0,72,0.00,,,-99.99,,2013-01-13 22:23:00,
2013-01-13 17:33:00,70.0,61.0,-100.00,SW,234,5.0,-999.0,72,0.00,,,-99.99,,2013-01-13 22:33:00,
2013-01-13 17:43:00,70.0,61.0,-100.00,SW,234,5.0,-999.0,72,0.00,,,-99.99,,2013-01-13 22:43:00,
2013-01-13 18:23:00,63.0,59.0,-100.00,SE,135,2.0,-999.0,86,0.00,,,-99.99,,2013-01-13 23:23:00,
2013-01-13 18:33:00,63.0,59.0,-100.00,SE,135,2.0,-999.0,86,0.00,,,-99.99,,2013-01-13 23:33:00,
2013-01-13 18:43:00,63.0,59.0,-100.00,SE,135,2.0,-999.0,86,0.00,,,-99.99,,2013-01-13 23:43:00,
2013-01-13 19:23:00,59.0,58.0,-100.00,SE,136,1.0,-999.0,96,0.00,,,-99.99,,2013-01-14 00:23:00,
2013-01-13 19:33:00,59.0,58.0,-100.00,SE,136,1.0,-999.0,96,0.00,,,-99.99,,2013-01-14 00:33:00,
2013-01-13 19:43:00,59.0,58.0,-100.00,SE,136,1.0,-999.0,96,0.00,,,-99.99,,2013-01-14 00:43:00,
2013-01-13 20:22:00,58.0,58.0,-100.00,South,187,3.0,-999.0,99,0.00,,,-99.99,,2013-01-14 01:22:00,
2013-01-13 20:33:00,58.0,58.0,-100.00,South,187,3.0,-999.0,99,0.00,,,-99.99,,2013-01-14 01:33:00,
2013-01-13 20:42:00,58.0,58.0,-100.00,South,187,3.0,-999.0,99,0.00,,,-99.99,,2013-01-14 01:42:00,
2013-01-13 21:23:00,56.0,-99.9,-100.00,SW,217,1.0,-999.0,101,0.00,,,-99.99,,2013-01-14 02:23:00,
2013-01-13 21:33:00,56.0,-99.9,-100.00,SW,217,1.0,-999.0,101,0.00,,,-99.99,,2013-01-14 02:33:00,
2013-01-13 21:43:00,56.0,-99.9,-100.00,SW,217,1.0,-999.0,101,0.00,,,-99.99,,2013-01-14 02:43:00,
2013-01-13 22:22:00,56.0,-99.9,-100.00,NE,46,0.0,-999.0,103,0.00,,,-99.99,,2013-01-14 03:22:00,
2013-01-13 22:33:00,56.0,-99.9,-100.00,NE,46,0.0,-999.0,103,0.00,,,-99.99,,2013-01-14 03:33:00,
2013-01-13 22:43:00,56.0,-99.9,-100.00,NE,46,0.0,-999.0,103,0.00,,,-99.99,,2013-01-14 03:43:00,
2013-01-13 23:22:00,55.0,-99.9,-100.00,South,181,0.0,-999.0,105,0.00,,,-99.99,,2013-01-14 04:22:00,
2013-01-13 23:32:00,55.0,-99.9,-100.00,South,181,0.0,-999.0,105,0.00,,,-99.99,,2013-01-14 04:32:00,
2013-01-13 23:42:00,55.0,-99.9,-100.00,South,181,0.0,-999.0,105,0.00,,,-99.99,,2013-01-14 04:42:00,